Hourly Data Report for April 09, 2003

SHERBROOKE A
QUEBEC

45°26'00.000" N
71°41'00.000" W
241.40 m
7028124
71610
YSC

Download Data

Hourly Data (April 2003)
Hourly Data Report for April 9, 2003
TIME
LST
Temp Definition
°C
Dew Point Definition
°C
Rel Hum Definition
%
Precip. Amount Definition
mm

Wind Dir Definition
10's deg

Wind Spd Definition
km/h
Visibility Definition
km
Stn Press Definition
kPa
Hmdx Definition


Wind Chill Definition


Weather Definition


00:00 -1.5 -2.8 91   4 6 15.0 99.66   -4 Snow
01:00 -1.7 -2.9 91   6 7 15.0 99.66   -4  
02:00 -1.7 -2.7 93   5 7 15.0 99.66   -4  
03:00 -1.8 -2.9 92   3 7 15.0 99.62   -4  
04:00 -1.7 -3.0 91   4 6 15.0 99.62   -4  
05:00 -1.8 -3.1 91   6 6 15.0 99.63   -4  
06:00 -1.8 -3.3 89   4 7 15.0 99.66   -4  
07:00 -1.2 -3.4 85   4 6 24.1 99.67   -3 Mostly Cloudy
08:00 -0.7 -3.6 81   6 6 24.1 99.62   -3 Mostly Cloudy
09:00 1.1 -4.0 69     0 24.1 99.63     Mostly Cloudy
10:00 2.7 -4.7 58   4 6 24.1 99.54     Mostly Cloudy
11:00 3.6 -5.4 52   36 4 24.1 99.51     Mostly Cloudy
12:00 4.3 -6.0 47   25 7 24.1 99.49     Mostly Cloudy
13:00 4.8 -5.5 47   25 6 24.1 99.45     Cloudy
14:00 4.7 -5.4 48   30 4 24.1 99.37     Cloudy
15:00 4.6 -5.5 48   24 6 24.1 99.31     Mostly Cloudy
16:00 4.3 -4.8 52   25 9 24.1 99.28     Mostly Cloudy
17:00 4.1 -4.3 54   23 6 15.0 99.28      
18:00 3.4 -4.0 58   26 6 15.0 99.27      
19:00 2.8 -4.0 61   23 6 15.0 99.27      
20:00 2.4 -3.9 63   22 6 15.0 99.30      
21:00 1.6 -3.2 70   29 9 15.0 99.28      
22:00 2.0 -3.2 68   30 6 15.0 99.29      
23:00 1.6 -3.0 71   25 6 15.0 99.32      

Notes on Data Quality.

Legend

  • E = Estimated
  • M = Missing
  • NA = Not Available*
  • [empty] = Indicates an unobserved value
Date modified: